Location: Newark
(47.8285°N, 0.6972°W)
Time: 00:31:04
(UTC+00:00)

N. Korean satellite - Visible Passes

Search period start: 16 October 2019 00:00
Search period end: 26 October 2019 00:00
Orbit: 455 x 508 km, 97.2° (Epoch: 14 October)

Date Brightness Start Highest point End Pass type
(mag) Time Alt. Az. Time Alt. Az. Time Alt. Az.
16 Oct 10.2 04:57:48 10° ENE 04:59:39 13° E 05:01:30 10° ESE visible
17 Oct 10.3 18:18:53 10° WSW 18:20:16 12° W 18:21:39 10° WNW visible
18 Oct 8.2 05:39:19 10° NNE 05:42:43 40° E 05:46:10 10° S visible
18 Oct 9.4 17:51:58 10° SSW 17:54:45 23° W 17:57:33 10° NW visible
19 Oct 9.6 05:14:29 10° NE 05:17:18 21° E 05:20:08 10° SE visible
20 Oct 10.4 04:50:35 10° ENE 04:51:48 11° E 04:53:00 10° ESE visible
21 Oct 7.1 05:56:39 10° NNE 06:00:15 67° ESE 06:03:54 10° S visible
21 Oct 10.0 18:10:22 10° SW 18:12:21 15° W 18:14:22 10° NW visible
22 Oct 8.7 05:31:34 10° NNE 05:34:53 33° E 05:38:14 10° SSE visible
22 Oct 9.0 17:43:52 10° SSW 17:46:52 28° W 17:49:54 10° NW visible
23 Oct 9.9 05:06:53 10° NE 05:09:26 18° E 05:11:59 10° SE visible
25 Oct 7.5 05:48:49 10° NNE 05:52:24 54° E 05:56:02 10° S visible
25 Oct 9.8 18:01:59 10° SW 18:04:25 18° W 18:06:53 10° NW visible
